Hourly Data Report for January 12, 2006

TORONTO CITY
ONTARIO

43°40'00.000" N
79°24'00.000" W
112.50 m
6158355
71508
XTO

Download Data

Hourly Data (January 2006)
Hourly Data Report for January 12, 2006
TIME
LST
Temp Definition
°C
Dew Point Definition
°C
Rel Hum Definition
%
Precip. Amount Definition
mm

Wind Dir Definition
10's deg

Wind Spd Definition
km/h
Visibility Definition
km
Stn Press Definition
kPa
Hmdx Definition


Wind Chill Definition


Weather Definition


00:00 4.7 1.9 82   LegendMM LegendMM   99.54     LegendNANA
01:00 4.6 2.2 84   LegendMM LegendMM   99.60     LegendNANA
02:00 4.5 2.6 87   LegendMM LegendMM   99.62     LegendNANA
03:00 4.6 2.8 88   LegendMM LegendMM   99.65     LegendNANA
04:00 4.8 2.9 87   LegendMM LegendMM   99.67     LegendNANA
05:00 5.0 2.5 84   LegendMM LegendMM   99.66     LegendNANA
06:00 4.7 2.4 85   LegendMM LegendMM   99.67     LegendNANA
07:00 5.0 2.4 83   LegendMM LegendMM   99.65     LegendNANA
08:00 4.8 2.7 86   LegendMM LegendMM   99.70     LegendNANA
09:00 5.2 2.4 82   LegendMM LegendMM   99.77     LegendNANA
10:00 5.4 2.6 82   LegendMM LegendMM   99.76     LegendNANA
11:00 5.5 2.2 79   LegendMM LegendMM   99.75     LegendNANA
12:00 6.8 3.1 77   LegendMM LegendMM   99.67     LegendNANA
13:00 7.9 3.0 71   LegendMM LegendMM   99.60     LegendNANA
14:00 8.8 3.0 67   LegendMM LegendMM   99.57     LegendNANA
15:00 7.6 2.9 72   LegendMM LegendMM   99.61     LegendNANA
16:00 7.9 2.9 71   LegendMM LegendMM   99.65     LegendNANA
17:00 7.0 3.0 76   LegendMM LegendMM   99.65     LegendNANA
18:00 6.3 2.8 78   LegendMM LegendMM   99.65     LegendNANA
19:00 6.3 2.7 78   LegendMM LegendMM   99.63     LegendNANA
20:00 6.5 2.7 77   LegendMM LegendMM   99.60     LegendNANA
21:00 6.6 2.5 75   LegendMM LegendMM   99.60     LegendNANA
22:00 5.9 2.5 79   LegendMM LegendMM   99.56     LegendNANA
23:00 6.2 2.3 76   LegendMM LegendMM   99.57     LegendNANA

Notes on Data Quality.

Legend

  • E = Estimated
  • M = Missing
  • NA = Not Available*
  • [empty] = Indicates an unobserved value
Date modified: